Location: Jastrz?bniki
(50.3667°N, 20.3833°E)
Time: 11:05:07
(UTC+00:00)

Cosmos 2278 Rocket - Pass Details

Date: 05 August 2024
Orbit: 841 x 844 km, 71.0° (Epoch: 06 September)

Event Time Altitude Azimuth Distance (km) Brightness Sun altitude
Rises 01:22:15 0° 332° (NNW) 3,409 5.7 -14.4°
Reaches altitude 10° 01:24:48 10° 338° (NNW) 2,471 5.0 -14.1°
Maximum altitude 01:30:18 49° 53° (NE) 1,081 3.2 -13.5°
Drops below altitude 10° 01:35:46 10° 128° (SE) 2,459 4.7 -13.0°
Sets 01:38:17 0° 134° (SE) 3,391 5.3 -12.7°
